TimeCDT,TemperatureF,Dew PointF,Humidity,Sea Level PressureIn,VisibilityMPH,Wind Direction,Wind SpeedMPH,Gust SpeedMPH,PrecipitationIn,Events,Conditions,WindDirDegrees,DateUTC
12:33 AM,73.4,69.8,88,30.00,10.0,SE,8.1,-,N/A,,Mostly Cloudy,130,2012-10-22 05:33:00
12:53 AM,73.0,70.0,90,30.00,10.0,ESE,8.1,-,N/A,,Mostly Cloudy,120,2012-10-22 05:53:00
1:03 AM,73.4,69.8,88,29.99,10.0,ESE,6.9,-,N/A,,Scattered Clouds,120,2012-10-22 06:03:00
1:53 AM,72.0,69.1,91,30.00,10.0,ESE,6.9,-,N/A,,Scattered Clouds,120,2012-10-22 06:53:00
2:35 AM,73.4,69.8,88,30.00,10.0,SSE,6.9,-,N/A,,Mostly Cloudy,150,2012-10-22 07:35:00
2:53 AM,73.0,69.1,87,29.99,10.0,SE,8.1,-,N/A,,Mostly Cloudy,130,2012-10-22 07:53:00
3:05 AM,73.4,69.8,88,29.99,10.0,SE,6.9,-,N/A,,Scattered Clouds,130,2012-10-22 08:05:00
3:53 AM,72.0,69.1,91,29.99,10.0,ESE,5.8,-,N/A,,Partly Cloudy,120,2012-10-22 08:53:00
4:53 AM,71.1,68.0,90,29.99,10.0,ESE,8.1,-,N/A,,Partly Cloudy,120,2012-10-22 09:53:00
5:24 AM,71.6,68.0,88,30.00,10.0,ESE,5.8,-,N/A,,Mostly Cloudy,120,2012-10-22 10:24:00
5:53 AM,71.1,68.0,90,30.01,10.0,ESE,6.9,-,N/A,,Mostly Cloudy,110,2012-10-22 10:53:00
6:53 AM,72.0,69.1,91,30.02,10.0,ESE,8.1,-,N/A,,Mostly Cloudy,110,2012-10-22 11:53:00
7:53 AM,72.0,69.1,91,30.04,10.0,ESE,6.9,-,N/A,,Mostly Cloudy,120,2012-10-22 12:53:00
8:00 AM,73.4,69.8,88,30.03,10.0,SE,5.8,-,N/A,,Partly Cloudy,130,2012-10-22 13:00:00
8:53 AM,75.9,70.0,82,30.04,10.0,ESE,10.4,-,N/A,,Partly Cloudy,110,2012-10-22 13:53:00
9:53 AM,79.0,70.0,74,30.05,10.0,ESE,13.8,-,N/A,,Partly Cloudy,120,2012-10-22 14:53:00
10:24 AM,80.6,69.8,70,30.06,10.0,SE,16.1,-,N/A,,Mostly Cloudy,130,2012-10-22 15:24:00
10:40 AM,80.6,69.8,70,30.06,10.0,SSE,16.1,-,N/A,,Scattered Clouds,150,2012-10-22 15:40:00
10:53 AM,81.0,68.0,65,30.06,10.0,SSE,13.8,20.7,N/A,,Scattered Clouds,150,2012-10-22 15:53:00
11:10 AM,80.6,69.8,70,30.06,10.0,SE,13.8,-,N/A,,Mostly Cloudy,140,2012-10-22 16:10:00
11:39 AM,80.6,68.0,65,30.06,10.0,SE,15.0,20.7,N/A,,Scattered Clouds,130,2012-10-22 16:39:00
11:53 AM,82.9,68.0,60,30.06,10.0,SSE,12.7,19.6,N/A,,Scattered Clouds,150,2012-10-22 16:53:00
12:53 PM,82.0,68.0,62,30.04,10.0,SE,12.7,-,N/A,,Scattered Clouds,130,2012-10-22 17:53:00
1:53 PM,81.0,68.0,65,30.02,10.0,SE,9.2,-,N/A,,Scattered Clouds,130,2012-10-22 18:53:00
2:53 PM,80.1,68.0,67,30.00,10.0,SE,12.7,18.4,N/A,,Scattered Clouds,140,2012-10-22 19:53:00
3:53 PM,81.0,68.0,65,30.01,10.0,ESE,12.7,-,N/A,,Partly Cloudy,120,2012-10-22 20:53:00
4:53 PM,78.1,68.0,71,30.00,10.0,SE,12.7,-,N/A,,Scattered Clouds,130,2012-10-22 21:53:00
5:53 PM,77.0,68.0,74,30.00,10.0,ESE,9.2,-,N/A,,Scattered Clouds,120,2012-10-22 22:53:00
6:53 PM,73.9,69.1,85,30.01,10.0,ESE,9.2,-,N/A,,Partly Cloudy,120,2012-10-22 23:53:00
7:53 PM,72.0,69.1,91,30.02,10.0,ESE,6.9,-,N/A,,Partly Cloudy,120,2012-10-23 00:53:00
8:53 PM,71.1,69.1,93,30.02,10.0,ESE,6.9,-,N/A,,Clear,120,2012-10-23 01:53:00
9:53 PM,70.0,68.0,93,30.02,10.0,SSE,5.8,-,N/A,,Clear,150,2012-10-23 02:53:00
10:53 PM,69.1,66.9,93,30.03,10.0,Calm,Calm,-,N/A,,Partly Cloudy,0,2012-10-23 03:53:00
11:53 PM,70.0,68.0,93,30.01,10.0,ESE,6.9,-,N/A,,Clear,110,2012-10-23 04:53:00